Flag for Morocco Weather past 2 weeks in Tangier, Morocco

86 °F

Passing clouds.

Feels Like: 84 °F
Forecast: 69 / 82 °F
Wind: 5 mph from West

Location: Tanger Aerodrome

Current Time: Oct 4, 2015 at 12:23:31 PM

Latest Report: Oct 4, 2015 at 12:00 PM

Visibility: N/A

Pressure: 30.12 "Hg

Humidity: 31%

Dew point: 52 °F

Location of TangierLocation

Historic Weather in Tangier — Graph


Tangier temperature yesterday

Maximum temperature yesterday: 77 °F (at 2:00 PM)
Minimum temperature yesterday: 68 °F (at 8:05 AM)
Average temperature yesterday: 72 °F

Past Weeks' High & Low Weather Summary

High88 °F (Oct 2, 4:30 PM)94% (Sep 22, 4:30 AM)30.15 "Hg (Sep 22, 4:30 AM)
Low61 °F (Sep 24, 5:00 AM)22% (Oct 2, 4:30 PM)29.89 "Hg (Sep 29, 3:30 PM)
Average73 °F65%30.03 "Hg
* Reported Sep 19 11:00 AM — Oct 4 11:00 AM, Tangier, Weather by CustomWeather, © 2015

Note: Actual official high and low records may vary slightly from our data, if they occured in-between our weather recording intervals... More about our weather records


Tangier weather history for previous 24 hours

Time TempWeatherWind HumidityBarometerVisibility
11:00 AM
Sun, Oct 4
82 °FPartly sunny.5 mph30%30.12 "HgN/A
10:30 AM81 °FPartly sunny.1 mph34%30.12 "HgN/A
10:00 AM77 °FPartly sunny.No wind42%30.12 "HgN/A
9:30 AM75 °FPartly sunny.1 mph50%30.12 "HgN/A
9:00 AM70 °FPartly sunny.No wind60%30.12 "HgN/A
8:30 AM66 °FPartly sunny.3 mph64%30.09 "HgN/A
8:00 AM64 °FPartly sunny.2 mph68%30.09 "HgN/A
7:30 AM63 °FPartly sunny.No wind68%30.09 "HgN/A
7:00 AM64 °FScattered clouds.3 mph68%30.09 "Hg5 mi
6:30 AM64 °FPassing clouds.2 mph68%30.07 "Hg5 mi
6:00 AM64 °FPassing clouds.2 mph73%30.07 "Hg5 mi
4:30 AM64 °FPassing clouds.3 mph73%30.07 "HgN/A
4:00 AM64 °FPassing clouds.5 mph73%30.07 "HgN/A
3:30 AM64 °FPassing clouds.2 mph68%30.09 "HgN/A
3:00 AM64 °FPassing clouds.3 mph68%30.09 "HgN/A
2:30 AM64 °FPassing clouds.5 mph73%30.09 "HgN/A
2:00 AM64 °FPassing clouds.3 mph68%30.09 "HgN/A
1:30 AM64 °FPassing clouds.No wind68%30.09 "Hg4 mi
1:00 AM66 °FPassing clouds.2 mph68%30.07 "Hg4 mi
12:30 AM68 °FPassing clouds.2 mph69%30.07 "HgN/A
12:00 AM70 °FPassing clouds.2 mph64%30.07 "HgN/A
11:30 PM
Sat, Oct 3
70 °FPassing clouds.3 mph69%30.07 "HgN/A
11:00 PM70 °FPassing clouds.3 mph64%30.07 "Hg5 mi
10:30 PM70 °FPassing clouds.2 mph64%30.07 "Hg5 mi
10:00 PM70 °FPassing clouds.5 mph69%30.07 "Hg5 mi
9:30 PM68 °FPassing clouds.1 mph73%30.07 "Hg5 mi
9:00 PM70 °FPassing clouds.1 mph78%30.07 "Hg5 mi
8:30 PM70 °FPassing clouds.2 mph78%30.07 "Hg5 mi
8:00 PM70 °FPassing clouds.No wind78%30.07 "Hg5 mi
7:30 PM70 °FPassing clouds.3 mph73%30.07 "Hg5 mi
7:00 PM72 °FPassing clouds.5 mph73%30.07 "HgN/A
6:30 PM72 °FPartly cloudy.6 mph69%30.04 "HgN/A
6:00 PM73 °FPartly sunny.6 mph65%30.04 "HgN/A
5:30 PM75 °FPartly sunny.6 mph57%30.04 "HgN/A
5:00 PM75 °FPartly sunny.7 mph65%30.04 "HgN/A
4:30 PM75 °FPartly sunny.7 mph65%30.04 "HgN/A
4:00 PM75 °FPartly sunny.9 mph69%30.04 "HgN/A
3:30 PM75 °FPartly sunny.9 mph69%30.04 "HgN/A
3:00 PM75 °FPartly sunny.9 mph65%30.04 "HgN/A
2:30 PM77 °FPartly sunny.10 mph65%30.04 "HgN/A
2:00 PM77 °FPartly sunny.10 mph61%30.04 "HgN/A
1:30 PM75 °FPartly sunny.10 mph69%30.07 "Hg5 mi
1:00 PM75 °FPartly sunny.10 mph74%30.07 "Hg5 mi
12:30 PM73 °FBroken clouds.12 mph74%30.07 "Hg5 mi
12:00 PM75 °FBroken clouds.13 mph69%30.07 "Hg5 mi
Weather by CustomWeather, © 2015

See weather overviewHow to use our weather pages